Location: *
(58.4167°N, 22.5000°E)
Time: 19:49:00
(UTC+00:00)

Cosmos 2056 Rocket - Pass Details

Date: 22 September 2019
Orbit: 743 x 800 km, 74.0° (Epoch: 21 October)

Event Time Altitude Azimuth Distance (km) Brightness Sun altitude
Rises 19:10:03 0° 224° (SW) 3,303 6.9 -20.3°
Reaches altitude 10° 19:12:29 10° 228° (SW) 2,373 6.1 -20.5°
Maximum altitude 19:17:50 58° 308° (NW) 925 4.2 -21.1°
Drops below altitude 10° 19:23:09 10° 27° (NNE) 2,362 6.2 -21.6°
Sets 19:25:35 0° 32° (NNE) 3,285 6.9 -21.8°
